Weather Roundup
Issued by NWS

Home | Current Version | Previous Version | Text Only | Print | Product List | Glossary On
Versions: 1 2 3 4 5 6 7 8 9 10 11 12 13 14 15 16 17 18 19 20 21 22 23 24 25 26 27 28 29 30 31 32 33 34 35 36 37 38 39 40 41 42 43 44 45 46 47 48 49 50
679
NZUS93 KARX 301259
HRRWXR

CURRENT HOURLY OBSERVATIONS ACROSS
MUCH OF THE UPPER MISSISSIPPI VALLEY
NATIONAL WEATHER SERVICE LA CROSSE WI
800 AM CDT SUN APR 30 2017


...SOUTHEAST MINNESOTA...


CITY           SKY/WX    TMP DP  RH WIND       PRES   REMARKS
ROCHESTER      CLOUDY    41  27  57 NE21G29   29.94F
ROCHESTER/MAYO CLOUDY    42  27  54 NE8G18    29.95F
WINONA         CLOUDY    43  30  61 E13G20    29.97F
AUSTIN         LGT RAIN  39  28  65 NE13G18   29.92R WCI  32
ALBERT LEA     LGT RAIN  39  28  65 NE15G22   29.92F WCI  31
DODGE CENTER   LGT RAIN  39  28  65 NE10G17   29.94F WCI  32
PRESTON        CLOUDY    40  28  63 NE9G20    29.93F WCI  33
OWATONNA       LGT RAIN  39  34  81 NE12G18   29.97F WCI  32
FARIBAULT      RAIN      39  32  75 N9        29.99F WCI  33
$$

...ELSEWHERE IN MINNESOTA...


CITY           SKY/WX    TMP DP  RH WIND       PRES   REMARKS
MINNEAPOLIS    CLOUDY    43  23  45 NE9       30.02F
INTNL FALLS    CLOUDY    39  23  52 E3        30.22F
DULUTH         CLOUDY    39  17  41 E14       30.13F WCI  31
RED WING       CLOUDY    45  21  39 E10       29.97F
REDWOOD FALLS  CLOUDY    42  26  53 NE8       30.01F
MANKATO        LGT RAIN  40  33  76 NE16      29.98F WCI  31
WORTHINGTON    RAIN      35  33  92 NE18      29.94F WCI  24
FAIRMONT       LGT RAIN  39  36  89 NE15      29.94F WCI  31
$$

...SOUTHWEST WISCONSIN...


CITY           SKY/WX    TMP DP  RH WIND       PRES   REMARKS
LA CROSSE      CLOUDY    44  32  62 E13G20    29.95F
PRAIRIE DU CHI CLOUDY    41  35  79 NE12G21   29.90F
BOSCOBEL       CLOUDY    41  37  86 VRB7      29.93F
LONE ROCK      NOT AVBL
PLATTEVILLE    CLOUDY    40  40 100 NE16G22   29.86F WCI  32
FORT MC COY    CLOUDY    41  33  72 NE14G20   29.96F
CAMP DOUGLAS   CLOUDY    41  32  70 NE9G23    29.96F
MAUSTON-NEW LI CLOUDY    41  35  80 E12G20    29.95F
VIROQUA        CLOUDY    39  35  84 E15G29    29.92F WCI  31
WIS DELLS      CLOUDY    38  37  95 NE16G22   29.94F FOG     WCI  29
$$

...ELSEWHERE IN WISCONSIN...


CITY           SKY/WX    TMP DP  RH WIND       PRES   REMARKS
MILWAUKEE      LGT RAIN  42  41  96 NE16      29.95F VSB 3/4
MADISON        DRIZZLE   40  38  93 E21G26    29.89F FOG     WCI  30
GREEN BAY      CLOUDY    41  40  96 NE21G29   30.05F FOG
EAU CLAIRE     CLOUDY    43  26  51 NE16G24   29.99F
BLACK RVR FLS  CLOUDY    42  29  59 E13G20    30.00F
MEDFORD        CLOUDY    38  26  61 E15G21    30.03F WCI  29
WAUSAU         CLOUDY    40  29  64 E17G26    30.01F WCI  31
WIS RAPIDS     CLOUDY    40  32  73 E16G28    29.99F WCI  31
MARSHFIELD     CLOUDY    40  29  64 E17G29    29.99F WCI  31
RICE LAKE      CLOUDY    41  23  48 NE13G18   30.08F
$$

...NORTHEAST IOWA...


CITY           SKY/WX    TMP DP  RH WIND       PRES   REMARKS
WATERLOO       CLOUDY    41  37  86 NE21      29.85S
DUBUQUE        CLOUDY    40  39  97 NE20G25   29.83F FOG     WCI  30
DECORAH        CLOUDY    41  36  81 E16G30    29.90S
MASON CITY     CLOUDY    39  32  76 NE15G24   29.90F WCI  31
CHARLES CITY   CLOUDY    41  34  75 NE16G23   29.89R
OELWEIN        CLOUDY    39  39 100 E21       29.87R WCI  29
$$

...ELSEWHERE IN IOWA...


CITY           SKY/WX    TMP DP  RH WIND       PRES   REMARKS
DES MOINES     DRIZZLE   42  40  92 NE13G28   29.80R FOG
IOWA CITY      CLOUDY    44  41  89 NE16G23   29.82R
FORT DODGE     CLOUDY    37  34  87 NE15G21   29.87R WCI  28
MARSHALLTOWN   CLOUDY    40  39  97 E23G33    29.81F WCI  30
CEDAR RAPIDS   CLOUDY    41  41 100 NE17      29.80R
$$

...NORTHERN ILLINOIS...


CITY           SKY/WX    TMP DP  RH WIND       PRES   REMARKS
CHICAGO-OHARE  LGT RAIN  43  41  93 NE16      29.85F FOG
CHICAGO-MIDWAY LGT RAIN  45  43  93 NE20      29.85F
MOLINE         CLOUDY    44  41  89 VRB6G21   29.81R
ROCKFORD       CLOUDY    42  39  89 E20G33    29.83F
PEORIA         CLOUDY    49  48  97 NE18G30   29.70F
$$

NOTE: "FAIR" INDICATES FEW OR NO CLOUDS BELOW 12,000 FEET WITH NO
SIGNIFICANT WEATHER AND/OR OBSTRUCTIONS TO VISIBILITY. WIND
SPEEDS ARE IN MILES-PER-HOUR.




USA.gov is the U.S. government's official web portal to all federal, state and local government web resources and services.